AirNav   ATP
 
 364 users online  

7A6 Stevenson Airport
Stevenson, Alabama, USA

GOING TO STEVENSON?


FAA INFORMATION EFFECTIVE 11 OCTOBER 2018

Location

FAA Identifier: 7A6
Lat/Long: 34-53-10.5950N / 085-48-11.8400W
34-53.176583N / 085-48.197333W
34.8862764 / -85.8032889
(estimated)
Elevation: 644 ft. / 196 m (estimated)
Variation: 01W (1985)
From city: 2 miles NE of STEVENSON, AL
Time zone: UTC -5 (UTC -6 during Standard Time)
Zip code: 35772

Airport Operations

Airport use: Open to the public
Control tower: no
ARTCC: ATLANTA CENTER
FSS: ANNISTON FLIGHT SERVICE STATION
NOTAMs facility: ANB (NOTAM-D service available)
Attendance: UNATTENDED
Wind indicator: lighted
Segmented circle: no
Beacon: white-green (lighted land airport)
Operates sunset to sunrise.

Airport Communications

CTAF/UNICOM: 122.8
WX AWOS-3PT at 4A6 (16 nm SW): 120.125 ((256) 259-1148)

Nearby radio navigation aids

VOR radial/distance  VOR name  Freq  Var
GQOr261/32.3CHOO CHOO VORTAC115.8001E

 
NDB name  Hdg/Dist  Freq  Var  ID
BOILING FORK146/21.826303WBGF -... --. ..-.
FORT PAYNE348/22.842604WFTP ..-. - .--.
DAISY244/35.934102WCQN -.-. --.- -.

Airport Services

Parking: tiedowns
Airframe service: MAJOR
Powerplant service: MAJOR
Bottled oxygen: LOW
Bulk oxygen: NONE

Runway Information

Runway 5/23

Dimensions: 4103 x 80 ft. / 1251 x 24 m
Surface: asphalt, in fair condition
Weight bearing capacity: 
Single wheel: 15.0
Runway edge lights: medium intensity
MIRL OUT OF SERVICE INDEFINITELY.
Runway edge markings: RY 05 AND 23 MARKINGS FADED.
Gradient: NE
RUNWAY 5  RUNWAY 23
Latitude: 34-52.956167N34-53.397000N
Longitude: 085-48.508667W085-47.886000W
Elevation: 621.9 ft.643.9 ft.
Gradient: 0.5% UP0.5% DOWN
Traffic pattern: rightleft
Runway heading: 050 magnetic, 049 true230 magnetic, 229 true
Markings: NSTD, in poor conditionNSTD, in poor condition
Obstructions: 15 ft. trees, 225 ft. from runway, 4 ft. right of centerline, 1:1 slope to clear88 ft. trees, 819 ft. from runway, 119 ft. left of centerline, 7:1 slope to clear

Airport Ownership and Management from official FAA records

Ownership: Publicly-owned
Owner: CITY OF STEVENSON
104 KENTUCKY AVE
STEVENSON, AL 35772
Phone 256-437-3000
Manager: BOBBY HICKS
104 KENTUCKY AVE
STEVENSON, AL 35772
Phone 256-599-1453

Airport Operational Statistics

Aircraft based on the field: 7
Single engine airplanes: 7
    
Aircraft operations: avg 123/week *
91% transient general aviation
8% local general aviation
2% military
* for 12-month period ending 01 October 2015

Additional Remarks

TWY LGTS FOR TWY TURNOFF ONLY.
ARPT CLSD NIGHTS.
FOR CD CTC CHATTANOOGA APCH AT 423-855-6478. IF UNA, CTC FSS.

Instrument Procedures

There are no published instrument procedures at 7A6.

Some nearby airports with instrument procedures:

KAPT - Marion County Airport-Brown Field (15 nm NE)
4A6 - Scottsboro Municipal Airport-Word Field (16 nm SW)
KBGF - Winchester Municipal Airport (22 nm NW)
4A9 - Isbell Field Airport (25 nm S)
9A5 - Barwick Lafayette Airport (28 nm SE)
 
Loc | Ops | Rwys | IFR | FBO | Links
Com | Nav | Svcs | Stats | Notes


 
Area around 7A6 (Stevenson Airport)
 
Road maps at: MapQuest Bing Google
 
Aerial photo
WARNING: Photo may not be current or correct
Aerial photo of 7A6 (Stevenson Airport)
Do you have a better or more recent aerial photo of Stevenson Airport that you would like to share? If so, please send us your photo.

 
Sectional chart

 
Airport distance calculator
Flying to Stevenson Airport? Find the distance to fly.

From to 7A6

Sunrise and sunset
Times for 17-Oct-2018
 Local
(UTC-5)
 Zulu
(UTC)
Morning civil twilight06:2611:26
Sunrise06:5211:52
Sunset18:0523:05
Evening civil twilight18:3123:31

Current date and time
Zulu (UTC)  17-Oct-2018 09:06:15
Local (UTC-5)  17-Oct-2018 04:06:15
 
METAR
K4A6 
15nm SW 
170855Z AUTO VRB03KT 10SM -DZ BKN019 15/15 A3022 RMK AO2
KBGF 
22nm NW 
170855Z AUTO 01005KT 6SM BR OVC005 12/11 A3023 RMK A01 P0002
K4A9 
25nm S 
170855Z AUTO 00000KT 10SM BKN009 BKN065 15/14 A3020 RMK AO2
K9A5 
28nm SE 
170855Z AUTO 00000KT 10SM SCT007 BKN039 BKN060 16/15 A3022 RMK AO2 T01560152
KCHA 
31nm E 
170853Z AUTO 33004KT 10SM BKN009 OVC014 17/14 A3021 RMK AO2 RAE03B23E32 CIG 006V012 SLP226 P0000 60000 T01670144 53007
TAF
NOTAMs
Click for the latest NOTAMs
NOTAMs are issued by the DoD/FAA and will open in a separate window not controlled by AirNav.

 

 
 

Would you like to see your business listed on this page?

 If your business provides an interesting product or service to pilots, flight crews, aircraft, or users of the Stevenson Airport, you should consider listing it here.  To start the listing process, click on the button below
 
Add a business
 

Other Pages about Stevenson Airport

Update a link
 
Copyright © AirNav, LLC. All rights reserved. Privacy Policy  Contact